Regional Weather Roundup
Issued by NWS

Home | Current Version | Previous Version | Text Only | Print | Product List | Glossary Off
Versions: 1 2 3 4 5 6 7 8 9 10 11 12 13 14 15 16 17 18 19 20 21 22 23 24 25 26 27 28 29 30 31 32 33 34 35 36 37 38 39 40 41 42 43 44 45 46 47 48 49 50

000
ASUS43 KMPX 251710
RWRMN
WEATHER ROUNDUP FOR MINNESOTA
NATIONAL WEATHER SERVICE TWIN CITIES/CHANHASSEN MN
1200 PM CDT SUN JUN 25 2017


NOTE: "FAIR" INDICATES FEW OR NO CLOUDS BELOW 12,000 FEET WITH NO
SIGNIFICANT WEATHER AND/OR OBSTRUCTIONS TO VISIBILITY. N/A MEANS
CURRENT SKY AND/OR WEATHER CONDITIONS ARE NOT AVAILABLE.

MNZ060>063-068>070-251800-
   Twin Cities Metro

CITY           SKY/WX    TMP DP  RH WIND       PRES   REMARKS
TWIN CITIES    CLOUDY    59  47  64 NW16G25   30.16R
ST PAUL        CLOUDY    59  50  72 NW14G23   30.15S
CRYSTAL        CLOUDY    59  45  59 NW17G23   30.14R
BLAINE         CLOUDY    61  50  67 NW15      30.15R
LAKEVILLE      CLOUDY    57  52  82 W9        30.16S
EDEN PRAIRIE   PTSUNNY   63  49  60 NW13      30.16R
SOUTH ST PAUL  CLOUDY    60  49  67 NW15G23   30.15R
LAKE ELMO      PTSUNNY   59  50  72 NW16G23   30.15R
$$
MNZ001>005-007-008-013>017-022>024-027-028-251800-
   Northwest Minnesota

CITY           SKY/WX    TMP DP  RH WIND       PRES   REMARKS
BEMIDJI        PTSUNNY   59  42  52 N14G22    30.17F
HALLOCK        PTSUNNY   59  45  58 NW12      30.21F
ROSEAU         SUNNY     54  48  82 NW9       30.18F
WARROAD        MOSUNNY   59  46  63 W16G23    30.17S
THIEF RVR FALL MOSUNNY   58  41  53 NW17G24   30.21F
CROOKSTON      MOSUNNY   61  43  51 NW15G21   30.22S
FOSSTON        PTSUNNY   57  45  62 NW15      30.21S
DETROIT LAKES  MOSUNNY   61  43  51 N15G21    30.23S
MOORHEAD       MOSUNNY   63  41  45 N15G21    30.24S
PARK RAPIDS    MOSUNNY   63  39  41 NW18G25   30.18S
MAHNOMEN       PTSUNNY   58  42  55 NW17G23   30.21S
$$
MNZ006-009>011-018-025>026-251800-
   North Central Minnesota

CITY           SKY/WX    TMP DP  RH WIND       PRES   REMARKS
BAUDETTE       MOSUNNY   59  48  67 N10       30.15F
FLAG ISLAND    HVY RAIN  52  43  71 NW10      30.17R
INTL FALLS     CLOUDY    55  46  71 NW8       30.13R
WASKISH        HVY RAIN  52  45  76 N6G22     30.17R
BIG FORK       MOSUNNY   57  46  67 N7        30.13S
LONGVILLE      PTSUNNY   57  45  62 NW8G17    30.16R
GRAND RAPIDS   PTSUNNY   56  44  64 NW20      30.15S
CRANE LAKE     RAIN      48  48 100 NW6         N/A
ORR            LGT RAIN  48  45  87 NW8       30.10R
COOK           LGT RAIN  48  46  93 NW3       30.12R
WALKER         FAIR      58  43  57 NW9G21    30.16F
$$
MNZ012-019>021-037-251800-
   Northeast Minnesota

CITY           SKY/WX    TMP DP  RH WIND       PRES   REMARKS
DULUTH         LGT RAIN  51  49  92 NW14G24   30.07R
ELY            HVY RAIN  52  52 100 NW6       30.06R
HIBBING        CLOUDY    53  49  86 N14       30.11R
EVELETH        HVY RAIN  50  46  85 NW9G17    30.11R
DULUTH HARBOR  LGT RAIN  52  52 100 NW12      30.07R
TWO HARBORS    CLOUDY    55  50  82 NW8G22    30.03R
SILVER BAY     TSTM      57  55  94 SW3       30.00R
GRAND MARAIS     N/A     50  50 100 E5        30.03R
G MARAIS ARPRT RAIN      50  46  87 E5        30.04S
$$
MNZ029>031-032-039>041-046>048-054>057-064-251800-
   West Central Minnesota

CITY           SKY/WX    TMP DP  RH WIND       PRES   REMARKS
FERGUS FALLS   MOSUNNY   61  43  51 NW15G22   30.22S
WHEATON        MOSUNNY   64  41  42 NW15      30.27S
MORRIS         MOSUNNY   64  39  39 NW18G26   30.23S
ALEXANDRIA     PTSUNNY   61  41  47 NW16G24   30.23R
ELBOW LAKE     FAIR      59  43  56 NW16G23   30.24S
WADENA         MOSUNNY   57  43  58 NW17      30.20S
GLENWOOD       SUNNY     63  43  48 NW17      30.22S
APPLETON       MOSUNNY   64  39  39 NW17G25   30.24S
BENSON         MOSUNNY   64  39  39 N17G24    30.25R
ORTONVILLE     MOSUNNY   63  43  48 NW16      30.25F
MADISON        MOSUNNY   64  45  48 NW20G26   30.25S
WILLMAR        FAIR      64  43  45 NW17G25   30.23S
$$
MNZ033>034-036-042>043-049>051-058-059-251800-
   Central Minnesota

CITY           SKY/WX    TMP DP  RH WIND       PRES   REMARKS
ST CLOUD       PTSUNNY   62  44  51 N18G26    30.17R
SAUK CENTRE    PTSUNNY   61  42  49 NW16G23   30.20S
PAYNESVILLE    MOSUNNY   62  41  46 NW13G23   30.20S
AITKIN         MOSUNNY   59  46  63 NW15G21   30.13S
PINE RIVER     MOSUNNY   59  45  58 NW15G22   30.19R
BRAINERD       PTSUNNY   60  42  51 NW18G26   30.17R
STAPLES        PTSUNNY   61  41  48 NW17      30.18S
LONG PRAIRIE   PTSUNNY   59  43  55 W16G22    30.20S
LITTLE FALLS   PTSUNNY   61  39  44 NW9G23    30.17S
LITCHFIELD     MOSUNNY   64  46  52 NW13G23   30.20R
BUFFALO        CLOUDY    60  45  56 W13G20    30.18S
MAPLE LAKE     PTSUNNY   64  50  60 NW13G21   30.18S
HUTCHINSON     MOSUNNY   63  47  56 W16G23    30.20S
$$
MNZ037-044-045-052-053-251800-
   East Central Minnesota

CITY           SKY/WX    TMP DP  RH WIND       PRES   REMARKS
PRINCETON      MOSUNNY   64  46  52 NW14G22   30.16R
MORA           CLOUDY    55  46  71 NW10G23   30.15R
CAMBRIDGE      CLOUDY    61  48  63 NW15G26   30.13R
RUSH CITY      CLOUDY    59  50  72 NW8G16    30.12S
MOOSE LAKE     CLOUDY    55  46  71 NW13G18   30.10R
HINCKLEY       PTSUNNY   61  52  72 NW15      30.11S
CLOQUET        PTSUNNY   54  48  82 NW13G20   30.09S
MCGREGOR       CLOUDY    55  45  67 NW16G24   30.14R
$$
MNZ071>073-080-081-089-090-097-098-251800-
   Southwest Minnesota

CITY           SKY/WX    TMP DP  RH WIND       PRES   REMARKS
MONTEVIDEO     MOSUNNY   64  43  45 N17G25    30.24S
GRANITE FALLS  SUNNY     65  43  44 NW15G26   30.26R
CANBY          MOSUNNY   65  43  44 W14       30.27S
MARSHALL       MOSUNNY   63  42  46 NW17G26   30.25S
REDWOOD FALLS  SUNNY     64  40  41 NW15G25   30.23R
OLIVIA         SUNNY     63  41  45 NW16G26   30.21S
PIPESTONE      MOSUNNY   63  43  48 NW14      30.27F
WINDOM         SUNNY     64  41  42 NW21G28   30.25S
WORTHINGTON    MOSUNNY   62  42  47 NW16G25   30.27S
JACKSON        SUNNY     63  39  42 NW21G35   30.25S
TRACY          MOSUNNY   64  45  49 NW12G22   30.26S
SLAYTON        MOSUNNY   61  42  48 NW17G25   30.27S
$$
MNZ065>067-074>077-082>085-091>093-251800-
   South Central Minnesota

CITY           SKY/WX    TMP DP  RH WIND       PRES   REMARKS
MANKATO        CLOUDY    61  45  55 NW18G26   30.20R
NEW ULM        MOSUNNY   63  43  48 NW15G32   30.21S
ST JAMES       SUNNY     64  39  39 W15G26    30.23S
FAIRMONT       SUNNY     63  42  46 NW22G29   30.23S
GLENCOE        PTSUNNY   62  48  61 NW15G25   30.18R
FARIBAULT      CLOUDY    61  48  63 W13G18    30.18R
OWATONNA       CLOUDY    61  50  67 NW15      30.18S
WASECA         CLOUDY    61  48  63 W17       30.20S
ALBERT LEA     CLOUDY    61  46  59 NW10G21   30.19S
$$
MNZ078>079-086>088-094>096-251800-
   Southeast Minnesota

CITY           SKY/WX    TMP DP  RH WIND       PRES   REMARKS
ROCHESTER      CLOUDY    57  51  80 NW15      30.18R
RED WING       DRIZZLE   57  52  82 NW10      30.14R
STANTON        CLOUDY    58  51  76 W15       30.15S
DODGE CENTER   CLOUDY    55  48  76 W14G21    30.18R
WINONA         CLOUDY    61  50  67 NW8       30.14S
AUSTIN         CLOUDY    59  48  67 NW15      30.18S
PRESTON        CLOUDY    54  48  81 NW14G22   30.18R
$$
ABBREVIATIONS USED IN REMARKS
   TC - TEMPERATURES IN CELSIUS
  WCI - WIND CHILL INDEX
   HX - HEAT INDEX
  VSB - VISIBILITY
$$



USA.gov is the U.S. government's official web portal to all federal, state and local government web resources and services.